[[{"header":{"parameterUnit":"m.s-1","parameterCategory":1,"la1":30.2992,"la2":30.254,"lo1":-89.0895,"lo2":-89.0443,"dy":0.0025,"dx":0.0025,"nx":19,"ny":19,"refTime":"2026-04-30T09:00:00:Z","depth":0,"parameterNumber":2,"parameterNumberName":"U-component_of_WINDS"},"data":[0,0,0,2.3247,2.3252,2.348,2.3481,2.3792,2.3795,0,0,0,0,0,0,0,0,0,0,0,2.3188,2.319,2.3247,2.3253,2.348,2.3481,2.3792,2.3795,0,0,0,0,0,0,0,0,0,0,0,2.3187,2.3189,2.3192,2.3253,2.348,2.3481,2.3791,2.3613,0,0,0,0,0,0,0,0,0,0,2.3388,2.3341,2.3189,2.3192,2.3255,2.348,2.3481,2.3604,2.3624,2.3696,0,2.3759,0,2.3782,2.3817,2.3818,0,0,0,2.3247,2.3324,2.3378,2.3193,2.3257,2.348,2.3376,2.3615,2.3638,2.3723,2.3763,2.3775,2.3787,2.3819,2.3821,2.4246,2.4248,0,0,2.3235,2.3234,2.3362,2.3393,2.3355,2.3369,2.3383,2.3628,2.3674,2.3765,2.3782,2.3792,2.3821,2.3824,2.4244,2.4246,0,0,0,2.3202,2.3226,2.3273,2.3381,2.342,2.3376,2.3392,2.3663,2.3679,2.3785,2.3796,2.3823,2.3827,2.4241,2.4245,2.4353,0,0,0,2.3194,2.3206,2.3268,2.327,2.3416,2.3544,2.3422,2.3662,2.3689,2.3794,2.3823,2.383,2.4239,2.4243,2.4345,2.4405,0,0,0,2.317,2.3203,2.3239,2.3269,2.3366,2.354,2.3569,2.3668,2.3697,2.3818,2.3831,2.4237,2.4242,2.4338,2.4393,2.4517,0,0,0,2.3145,2.3333,2.3241,2.3456,2.3365,2.3604,2.3567,2.3747,2.3864,2.3825,2.4239,2.4244,2.4335,2.4386,2.4509,2.4622,2.4668,0,0,2.3383,2.3362,2.3489,2.3412,2.3667,2.3569,2.3842,2.3952,2.3966,2.4153,2.4163,2.4348,2.4392,2.4516,2.4927,2.4964,0,0,0,2.3564,2.3655,2.3723,2.3833,2.3919,2.3999,2.4066,2.4107,2.4265,2.406,2.4426,2.4453,2.4525,2.4579,2.461,2.4673,2.4269,2.4268,2.4268,2.39,2.3905,2.4116,2.4149,2.4257,2.4324,2.4413,2.448,2.4455,2.4542,2.4597,2.4846,2.4909,2.4933,2.4998,2.4657,2.4657,2.4658,2.4658,2.4249,2.4379,2.4341,2.4531,2.4537,2.4698,2.4772,2.4749,2.4902,2.4804,2.4869,2.4763,2.4973,2.5031,2.4666,2.4665,2.4664,2.4663,2.4662,2.4471,2.4534,2.4578,2.4738,2.4862,2.489,2.5038,2.5039,2.5041,2.5104,2.5164,2.5162,2.5161,2.5132,2.5133,2.5134,2.5135,2.5135,2.5136,2.4683,2.4729,2.4852,2.496,2.503,2.5125,2.5195,2.5266,2.5346,2.5335,2.5335,2.5304,2.4991,2.4913,2.5149,2.5147,2.5145,2.5144,2.5143,2.5036,2.4956,2.5146,2.5217,2.5344,2.5467,2.5465,2.5611,2.567,2.5744,2.5699,2.5467,2.5447,2.5422,2.5358,2.5695,2.5695,2.5695,2.5695,2.5223,2.5212,2.5407,2.552,2.5632,2.565,2.5868,2.5925,2.5973,2.6011,2.5962,2.5876,2.5851,2.5846,2.5812,2.5752,2.6182,2.6183,2.6183,2.5442,2.5441,2.5625,2.5667,2.5766,2.5853,2.6058,2.6194,2.6231,2.6203,2.6041,2.602,2.5882,2.5836,2.5805,2.5752,2.5642,0,0]},{"header":{"parameterUnit":"m.s-1","parameterCategory":1,"la1":30.2992,"la2":30.254,"lo1":-89.0895,"lo2":-89.0443,"dy":0.0025,"dx":0.0025,"nx":19,"ny":19,"refTime":"2026-04-30T09:00:00:Z","depth":0,"parameterNumber":3,"parameterNumberName":"V-component_of_WINDS"},"data":[0,0,0,-1.1458,-1.1457,-1.1406,-1.1406,-1.1305,-1.1304,0,0,0,0,0,0,0,0,0,0,0,-1.1454,-1.1453,-1.1458,-1.1456,-1.1406,-1.1406,-1.1305,-1.1304,0,0,0,0,0,0,0,0,0,0,0,-1.1455,-1.1454,-1.1452,-1.1456,-1.1406,-1.1406,-1.1306,-1.1356,0,0,0,0,0,0,0,0,0,0,-1.141,-1.139,-1.1454,-1.1452,-1.1456,-1.1406,-1.1406,-1.1359,-1.1353,-1.1313,0,-1.1277,0,-1.1289,-1.1295,-1.1295,0,0,0,-1.1469,-1.1395,-1.1399,-1.1452,-1.1455,-1.1406,-1.1433,-1.1356,-1.1349,-1.1305,-1.1276,-1.1273,-1.1287,-1.1294,-1.1294,-1.1031,-1.1029,0,0,-1.1472,-1.1435,-1.1403,-1.1393,-1.1403,-1.1434,-1.1431,-1.1352,-1.1316,-1.1276,-1.1271,-1.1286,-1.1294,-1.1293,-1.1033,-1.1031,0,0,0,-1.1471,-1.1436,-1.1442,-1.1397,-1.1391,-1.1432,-1.1429,-1.132,-1.1325,-1.1271,-1.1285,-1.1293,-1.1291,-1.1035,-1.1032,-1.0902,0,0,0,-1.1474,-1.1436,-1.1443,-1.1419,-1.1391,-1.1355,-1.1397,-1.1331,-1.1323,-1.1285,-1.1293,-1.129,-1.1037,-1.1033,-1.091,-1.0845,0,0,0,-1.1464,-1.1435,-1.1422,-1.1417,-1.1395,-1.1358,-1.1359,-1.133,-1.1331,-1.1295,-1.129,-1.1039,-1.1034,-1.0918,-1.0857,-1.0761,0,0,0,-1.1442,-1.1308,-1.1419,-1.1275,-1.1395,-1.1281,-1.136,-1.1276,-1.123,-1.1292,-1.1037,-1.1032,-1.092,-1.0865,-1.0768,-1.0668,-1.0626,0,0,-1.1252,-1.1284,-1.1203,-1.13,-1.1156,-1.1291,-1.1127,-1.112,-1.115,-1.1068,-1.1062,-1.0908,-1.0858,-1.0762,-1.0408,-1.0373,0,0,0,-1.1129,-1.1069,-1.104,-1.0995,-1.0988,-1.0974,-1.0997,-1.0994,-1.0927,-1.1102,-1.0852,-1.0823,-1.0768,-1.0722,-1.0692,-1.0645,-1.1011,-1.1012,-1.1012,-1.0803,-1.085,-1.0716,-1.0756,-1.0712,-1.0737,-1.0703,-1.0703,-1.0764,-1.0703,-1.0677,-1.0457,-1.0401,-1.038,-1.0329,-1.0634,-1.0634,-1.0633,-1.0633,-1.0523,-1.0443,-1.0528,-1.0428,-1.0477,-1.0392,-1.041,-1.0455,-1.038,-1.0481,-1.0435,-1.0535,-1.034,-1.0298,-1.0624,-1.0625,-1.0626,-1.0627,-1.0628,-1.0309,-1.0278,-1.0279,-1.0218,-1.0165,-1.0212,-1.0135,-1.0185,-1.023,-1.0185,-1.0159,-1.0161,-1.0163,-1.0171,-1.017,-1.0169,-1.0169,-1.0168,-1.0168,-1.0083,-1.0089,-1.0019,-1.0001,-0.9977,-0.9952,-0.9975,-0.9952,-0.9938,-0.9979,-0.9979,-1.004,-1.0316,-1.038,-1.0156,-1.0158,-1.0159,-1.016,-1.0161,-0.977,-0.9849,-0.9741,-0.9718,-0.9698,-0.9638,-0.9705,-0.9653,-0.9641,-0.96,-0.9674,-0.9872,-0.9906,-0.993,-0.9982,-0.9669,-0.9669,-0.9669,-0.9669,-0.9583,-0.9608,-0.9508,-0.9465,-0.9431,-0.9479,-0.935,-0.9366,-0.9395,-0.9389,-0.9443,-0.952,-0.9542,-0.9563,-0.9595,-0.9644,-0.9252,-0.9251,-0.9251,-0.9389,-0.9413,-0.9295,-0.9328,-0.9315,-0.9302,-0.9181,-0.9125,-0.9175,-0.9235,-0.9384,-0.9401,-0.9526,-0.9565,-0.9621,-0.967,-0.9762,0,0]}]]